Location: Landeleau
(48.2273°N, 3.7285°W)
Time: 17:18:10
(UTC+00:00)

Meteor 2-15 Rocket - Pass Details

Date: 30 March 2020
Orbit: 940 x 955 km, 82.5° (Epoch: 25 May)

Event Time Altitude Azimuth Distance (km) Brightness Sun altitude
Rises 20:10:09 0° 182° (S) 3,595 7.3 -14.8°
Reaches altitude 10° 20:12:37 10° 181° (S) 2,653 6.6 -15.1°
Maximum altitude 20:18:40 77° 97° (E) 969 4.3 -16.0°
Drops below altitude 10° 20:24:45 10° 12° (NNE) 2,668 7.0 -17.0°
Sets 20:27:15 0° 11° (NNE) 3,616 7.7 -17.3°
